Wind_Speed
36 37 38 40 40 39 39 40 40 39 39 39 40 40 40 40 39 39 39 40 40 40 39 39 40 41 41 41 41 41 41 41 42 42 43 43 44 44 44 45 46 47 47 48
35 36 38 38 39 40 39 39 40 40 39 39 39 39 39 39 39 39 39 39 39 39 40 40 40 41 41 41 41 41 41 41 42 42 43 43 43 43 43 44 44 45 46 46
32 33 35 37 37 38 39 39 39 40 38 38 38 38 38 38 37 37 38 38 38 38 39 40 40 40 41 40 40 41 40 41 42 42 42 42 42 42 42 43 43 44 44 44
33 32 34 34 35 36 37 37 38 38 39 39 39 39 39 39 38 38 37 38 38 38 39 40 40 40 40 39 39 40 40 40 41 41 42 42 42 42 41 41 41 42 42 42
34 34 34 34 34 34 35 35 35 36 37 39 39 39 38 38 38 37 38 38 39 39 39 39 40 40 39 39 39 40 39 39 40 40 41 41 41 41 41 41 41 40 39 39
31 32 32 32 32 32 33 34 35 35 36 36 37 37 37 37 36 36 36 37 38 38 39 39 39 39 39 39 39 39 39 39 39 39 40 40 40 40 40 40 40 39 38 37
28 30 31 30 30 31 32 32 33 34 34 35 36 36 35 36 36 36 36 36 37 37 37 37 38 38 39 40 40 39 38 38 38 39 39 39 38 38 38 38 38 37 36 36
26 28 29 29 30 31 31 31 31 32 33 33 34 34 34 34 35 35 35 36 36 36 37 37 37 38 38 38 38 37 37 38 38 39 38 37 37 36 36 35 35 35 34 34
26 27 28 28 29 30 31 31 31 31 31 32 32 34 34 34 35 35 36 37 37 36 36 36 37 37 36 36 36 36 36 37 37 37 36 35 35 33 32 32 33 33 33 33
26 27 27 27 28 29 30 30 30 29 30 31 32 32 33 33 34 35 36 36 36 36 35 34 35 35 35 35 35 35 35 35 35 35 34 33 32 31 31 31 32 32 32 32
24 24 25 26 27 27 27 27 27 28 29 30 30 31 31 32 33 33 34 34 35 35 35 35 34 34 34 34 34 33 33 33 33 33 32 31 31 31 30 31 32 32 31 30
22 23 23 23 24 25 26 27 28 28 29 30 31 31 31 31 31 32 32 32 33 35 35 35 35 34 34 34 33 31 31 31 31 31 30 30 30 30 30 30 30 30 29 28
22 22 22 22 23 24 24 25 27 28 29 29 30 30 31 31 31 31 31 32 33 34 34 34 34 34 33 32 31 30 30 30 29 29 29 29 29 29 29 28 28 28 28 27
21 21 22 22 22 23 23 24 25 26 27 28 29 30 30 30 30 30 31 31 32 32 33 33 33 32 31 31 30 30 29 29 29 28 27 27 27 27 27 26 26 26 26 26
19 20 21 21 22 23 23 24 25 26 27 27 28 29 29 29 29 29 30 30 31 31 31 31 30 29 29 29 29 29 29 28 28 27 27 26 26 26 25 25 25 24 24 25
18 20 21 21 21 22 22 23 24 25 25 26 27 27 27 27 27 27 27 28 27 27 28 27 27 27 27 27 28 28 28 28 27 27 26 26 26 25 25 25 24 24 24 24
18 19 20 21 21 21 22 23 23 24 24 25 26 26 27 27 27 26 26 26 26 25 25 25 25 25 25 26 26 26 26 26 26 25 25 25 25 25 24 24 23 23 23 24
19 19 20 21 21 21 22 22 23 23 24 24 25 25 25 25 25 25 25 24 24 24 24 24 24 24 24 24 23 23 23 24 24 23 23 23 23 23 22 22 22 22 22 22
18 18 19 20 21 21 21 22 22 23 23 23 24 24 24 24 24 24 23 23 23 23 23 24 24 24 23 23 22 22 22 21 21 21 21 21 21 21 20 20 20 20 20 19
17 17 17 18 19 19 19 20 21 21 22 22 23 24 24 23 23 22 22 22 23 23 23 24 24 23 22 22 22 21 20 20 20 20 20 20 20 20 19 19 19 19 18 17
16 17 17 18 18 18 18 18 18 19 19 20 21 22 22 22 22 22 22 22 22 22 22 22 22 22 22 21 20 20 20 19 19 19 19 19 18 18 18 17 17 17 16 15
16 16 16 16 16 17 17 17 17 17 18 18 18 18 19 19 20 20 20 20 19 19 19 20 20 20 20 20 19 19 19 19 18 18 17 17 16 16 15 15 15 14 13 12
14 15 15 15 15 15 15 16 16 16 16 16 16 16 17 18 18 17 17 17 17 16 16 17 17 16 17 17 17 17 17 16 16 15 15 14 14 13 13 12 11 10 9 9
14 14 14 14 14 14 14 14 14 14 14 15 15 15 15 15 15 15 14 14 14 14 14 14 14 14 14 14 15 14 14 13 13 12 12 12 11 10 9 9 8 7 7 6
14 13 13 13 12 12 12 12 12 12 12 12 12 12 12 12 12 12 12 12 11 11 11 12 12 12 11 12 12 12 11 10 10 10 9 9 8 8 7 7 6 5 5 5
12 12 12 11 10 10 9 9 9 9 9 10 10 10 10 10 10 10 10 10 10 10 10 10 10 10 10 10 10 10 10 9 9 8 8 8 7 7 6 5 5 5 5 4
11 10 10 9 9 8 8 8 8 8 8 8 8 8 9 9 9 9 10 10 9 9 9 9 8 8 9 9 8 8 8 8 8 8 8 8 8 7 6 5 5 5 4 4
Wind_Direction
239 239 240 240 237 237 238 239 241 241 243 245 247 249 252 254 255 256 258 258 259 260 261 261 262 263 265 266 267 267 267 267 266 268 270 272 272 272 273 273 274 275 276 277
238 238 240 240 239 239 240 240 241 241 243 245 248 249 251 253 255 256 257 258 259 259 260 261 263 264 265 266 267 267 267 266 267 269 271 272 272 272 273 274 274 275 276 278
237 237 238 240 241 243 243 243 244 245 245 246 249 250 252 254 256 257 257 258 258 259 260 261 263 264 266 266 267 268 268 267 268 270 272 272 271 272 273 273 274 275 277 278
239 239 240 241 243 245 244 245 247 248 247 248 250 252 253 254 256 256 257 258 259 260 260 261 263 264 266 266 266 266 266 267 268 270 271 271 271 272 272 273 275 277 277 277
241 243 244 242 244 245 246 246 247 248 249 249 251 252 253 255 257 257 258 258 259 260 260 261 262 264 265 266 266 266 267 268 269 270 271 272 272 272 272 273 275 276 276 276
242 245 246 244 244 245 246 247 246 248 248 249 251 253 254 255 257 257 258 258 259 260 260 261 262 264 265 265 266 267 267 269 270 271 272 272 272 272 271 273 274 275 276 276
241 243 245 245 244 246 247 248 248 248 249 249 250 253 255 255 256 257 258 259 260 260 260 261 262 263 264 265 266 267 267 268 269 271 272 271 271 272 272 272 273 274 274 275
243 243 245 245 246 247 249 249 250 251 251 251 251 253 255 256 256 257 259 260 261 262 261 261 262 263 264 265 266 266 266 267 269 271 272 271 271 271 271 271 272 273 273 274
245 245 246 247 249 250 249 250 250 251 252 252 252 253 255 256 257 259 260 260 260 260 262 262 263 263 264 265 266 266 267 269 270 271 272 271 271 270 269 271 272 272 273 275
245 244 245 246 248 249 250 251 250 251 252 253 253 254 256 258 259 260 260 260 260 260 261 262 263 263 264 265 266 267 268 268 269 270 270 269 268 268 270 271 272 273 274 276
245 243 244 245 248 249 249 250 251 250 252 253 254 256 258 259 259 260 261 260 260 260 260 261 263 263 264 265 265 266 267 268 269 270 268 266 266 268 270 273 275 276 276 277
246 246 246 246 248 249 250 251 251 252 252 253 255 257 258 259 259 260 260 259 260 260 261 262 263 263 264 264 264 266 267 268 268 268 267 267 266 268 271 274 275 276 276 277
249 250 250 250 251 252 253 252 252 252 253 254 255 256 256 257 259 260 260 260 260 261 262 263 264 263 262 261 262 264 266 267 268 267 267 267 268 269 271 273 274 274 275 277
251 251 252 253 254 255 256 255 254 255 256 256 257 257 257 258 259 259 260 261 261 261 263 263 263 262 261 260 261 262 264 266 267 267 267 268 269 270 272 272 272 272 274 277
252 252 253 255 257 258 258 258 258 258 258 259 259 259 259 260 260 260 260 261 261 261 261 262 261 260 260 260 261 262 263 265 265 266 266 268 269 270 271 272 272 273 274 276
255 254 256 257 259 259 260 260 260 259 258 258 258 259 260 260 260 261 261 261 260 261 261 260 259 259 259 260 261 262 263 264 264 265 266 268 270 271 271 273 274 274 276 276
261 262 260 260 261 262 263 262 261 259 258 257 257 258 259 259 259 260 262 261 261 261 260 259 259 260 260 262 262 263 263 263 264 265 266 268 270 271 272 273 275 276 276 277
267 267 265 265 265 266 265 264 263 261 259 257 257 257 258 258 258 260 261 261 262 261 261 260 260 261 261 263 263 263 263 264 265 266 267 269 270 271 272 273 275 275 277 279
270 269 267 266 267 269 269 267 266 264 262 260 257 257 258 259 259 260 260 260 261 261 260 259 260 259 260 262 263 263 262 264 265 266 267 269 270 269 269 272 274 276 277 279
272 271 270 269 270 271 270 268 267 265 263 262 260 259 259 259 259 259 260 261 262 261 260 259 259 257 258 259 259 259 260 263 265 266 268 270 269 268 267 270 273 275 276 277
275 275 274 274 273 271 269 268 267 266 264 263 262 262 259 258 258 258 260 261 262 262 260 259 257 255 256 257 258 259 261 263 264 266 267 268 269 268 268 269 271 273 275 275
279 278 278 277 274 270 268 267 265 265 264 263 262 261 258 257 258 259 260 261 261 261 259 256 253 252 253 255 257 259 260 261 263 264 265 266 266 267 266 266 268 270 270 267
283 281 280 279 276 273 272 270 267 264 262 261 260 260 259 258 257 257 258 259 260 258 254 250 249 251 252 252 254 255 256 258 259 260 262 262 262 262 261 260 261 262 259 254
284 282 281 280 279 277 274 272 270 267 264 262 261 260 258 255 255 256 257 257 255 251 248 247 249 251 250 249 251 253 254 254 253 254 254 253 252 252 251 248 250 251 246 242
283 282 281 282 281 279 276 274 271 268 264 260 258 255 252 250 250 252 252 251 248 244 243 244 245 245 245 246 246 247 246 243 243 243 242 241 241 240 239 236 235 238 235 238
283 282 281 281 281 280 278 275 270 265 262 259 255 250 245 243 244 245 247 246 243 241 241 241 241 242 242 242 242 238 233 230 229 228 225 224 223 224 223 224 229 232 231 233
281 279 277 277 277 276 275 274 271 267 264 256 249 246 243 241 241 243 243 241 238 238 238 238 237 235 233 234 229 221 217 218 218 216 212 212 214 215 220 224 226 228 228 224
Height
5520 5524 5528 5532 5537 5541 5545 5549 5554 5559 5562 5564 5567 5570 5573 5576 5578 5581 5584 5586 5588 5589 5590 5591 5592 5592 5593 5593 5593 5593 5592 5592 5592 5592 5591 5591 5590 5590 5589 5588 5587 5586 5584 5582
5512 5516 5519 5523 5528 5532 5537 5540 5544 5548 5552 5555 5557 5560 5563 5566 5568 5571 5573 5575 5577 5578 5579 5580 5581 5582 5582 5582 5583 5583 5583 5582 5582 5582 5581 5581 5580 5579 5578 5577 5575 5574 5572 5571
5504 5508 5510 5515 5521 5524 5528 5531 5535 5538 5544 5545 5548 5551 5554 5556 5558 5561 5563 5564 5566 5567 5569 5570 5571 5571 5572 5572 5572 5572 5572 5572 5572 5571 5571 5570 5569 5568 5567 5566 5564 5563 5561 5560
5496 5500 5503 5510 5512 5515 5519 5523 5526 5529 5533 5536 5538 5541 5544 5546 5548 5550 5552 5554 5555 5556 5558 5559 5560 5560 5561 5561 5562 5562 5562 5561 5561 5561 5560 5559 5558 5557 5556 5555 5554 5552 5551 5549
5489 5491 5495 5501 5504 5507 5510 5514 5517 5520 5523 5526 5529 5531 5534 5536 5538 5540 5542 5543 5544 5545 5547 5548 5549 5549 5550 5550 5551 5551 5551 5551 5551 5550 5549 5548 5547 5546 5545 5544 5544 5542 5540 5539
5482 5485 5488 5494 5496 5499 5503 5506 5509 5511 5514 5517 5519 5523 5526 5527 5529 5530 5531 5532 5534 5535 5536 5537 5538 5539 5539 5540 5540 5540 5540 5540 5540 5539 5538 5538 5537 5536 5535 5534 5533 5532 5531 5530
5475 5477 5481 5486 5488 5491 5496 5499 5500 5502 5505 5508 5510 5514 5516 5517 5519 5520 5521 5523 5524 5525 5526 5526 5527 5528 5528 5529 5530 5530 5530 5530 5529 5529 5528 5527 5526 5525 5524 5523 5523 5522 5521 5520
5469 5471 5477 5479 5481 5484 5487 5490 5492 5494 5496 5499 5501 5503 5505 5507 5509 5510 5512 5513 5514 5515 5515 5516 5517 5517 5518 5518 5519 5519 5519 5519 5519 5518 5517 5516 5516 5515 5514 5513 5513 5512 5512 5511
5464 5467 5469 5471 5473 5476 5478 5481 5483 5486 5488 5490 5492 5494 5496 5498 5499 5500 5502 5503 5504 5505 5506 5506 5506 5507 5507 5508 5508 5509 5509 5509 5509 5508 5508 5507 5506 5505 5505 5504 5503 5503 5502 5502
5457 5459 5461 5464 5466 5468 5470 5473 5475 5477 5479 5481 5483 5485 5487 5488 5489 5491 5492 5492 5493 5494 5496 5496 5497 5497 5498 5498 5499 5499 5499 5499 5499 5499 5498 5498 5497 5496 5496 5495 5495 5494 5493 5493
5450 5453 5455 5457 5459 5461 5463 5465 5467 5469 5471 5472 5474 5476 5478 5479 5480 5481 5482 5483 5484 5485 5486 5487 5487 5488 5488 5489 5489 5489 5490 5490 5489 5489 5489 5489 5488 5488 5487 5487 5486 5485 5485 5484
5445 5447 5449 5451 5452 5454 5456 5457 5459 5461 5463 5464 5466 5467 5468 5469 5470 5471 5472 5473 5474 5475 5476 5477 5478 5478 5479 5479 5480 5480 5480 5481 5481 5480 5480 5480 5480 5480 5479 5478 5478 5476 5476 5475
5439 5441 5442 5444 5446 5447 5448 5450 5451 5453 5454 5456 5457 5458 5460 5461 5462 5462 5463 5464 5465 5465 5466 5467 5468 5468 5469 5469 5470 5471 5471 5472 5471 5471 5471 5471 5471 5471 5471 5471 5469 5468 5468 5467
5433 5435 5436 5438 5439 5441 5442 5443 5444 5445 5446 5448 5449 5450 5451 5452 5453 5454 5454 5455 5456 5456 5457 5457 5458 5459 5459 5460 5461 5462 5463 5463 5463 5463 5463 5463 5463 5463 5463 5462 5462 5461 5460 5459
5428 5430 5431 5432 5433 5434 5435 5436 5437 5438 5439 5440 5440 5441 5442 5443 5444 5445 5446 5446 5447 5447 5448 5448 5449 5450 5451 5452 5453 5454 5454 5454 5455 5455 5455 5455 5455 5455 5455 5454 5454 5453 5453 5452
5423 5424 5425 5426 5427 5427 5428 5429 5429 5430 5431 5432 5433 5433 5434 5435 5436 5437 5437 5438 5438 5439 5439 5440 5441 5442 5442 5443 5444 5445 5446 5446 5446 5447 5448 5448 5448 5447 5447 5447 5446 5446 5445 5445
5418 5419 5419 5420 5420 5421 5421 5421 5422 5422 5423 5424 5425 5426 5427 5427 5428 5429 5429 5429 5430 5431 5431 5432 5433 5434 5435 5436 5436 5437 5438 5438 5439 5439 5440 5440 5440 5440 5440 5439 5439 5438 5438 5437
5413 5413 5413 5413 5414 5414 5414 5414 5414 5415 5415 5416 5417 5418 5419 5420 5420 5421 5421 5422 5423 5423 5424 5425 5426 5427 5428 5428 5429 5429 5430 5431 5431 5432 5432 5432 5433 5433 5432 5432 5432 5431 5431 5430
5407 5407 5407 5407 5407 5407 5407 5407 5407 5408 5408 5409 5409 5410 5411 5412 5412 5413 5414 5415 5415 5416 5416 5417 5418 5419 5420 5421 5422 5423 5423 5424 5424 5425 5425 5425 5425 5425 5425 5425 5425 5425 5424 5423
5402 5401 5401 5401 5401 5401 5400 5400 5400 5401 5401 5401 5402 5403 5403 5404 5405 5406 5407 5407 5408 5408 5409 5410 5411 5412 5413 5414 5415 5416 5417 5417 5418 5418 5419 5419 5419 5419 5419 5419 5418 5418 5418 5417
5397 5396 5396 5396 5395 5395 5395 5394 5394 5394 5394 5395 5395 5395 5396 5397 5398 5399 5400 5400 5401 5401 5402 5403 5404 5405 5407 5408 5409 5409 5410 5411 5411 5412 5412 5412 5412 5412 5412 5412 5412 5412 5412 5412
5392 5391 5391 5390 5390 5389 5389 5389 5389 5389 5389 5389 5389 5389 5390 5391 5391 5392 5393 5393 5394 5394 5395 5396 5397 5399 5400 5402 5403 5403 5404 5405 5405 5406 5406 5406 5407 5407 5407 5407 5407 5407 5407 5407
5387 5387 5386 5385 5385 5384 5384 5384 5383 5383 5384 5384 5384 5384 5385 5385 5386 5386 5387 5387 5388 5389 5389 5391 5392 5393 5394 5396 5397 5398 5398 5399 5399 5400 5401 5401 5402 5402 5402 5403 5403 5403 5404 5404
5383 5383 5382 5381 5380 5380 5379 5379 5379 5378 5378 5379 5379 5379 5380 5380 5381 5381 5382 5382 5383 5384 5385 5386 5387 5388 5390 5391 5392 5393 5393 5394 5395 5395 5396 5397 5398 5398 5399 5399 5400 5401 5401 5402
5379 5378 5378 5377 5376 5376 5375 5375 5374 5374 5374 5374 5375 5375 5375 5376 5377 5377 5378 5378 5379 5380 5381 5382 5383 5384 5385 5386 5387 5388 5389 5390 5391 5392 5393 5394 5395 5396 5397 5397 5398 5399 5400 5400
5375 5375 5374 5374 5373 5372 5372 5371 5371 5371 5371 5371 5371 5371 5372 5372 5373 5374 5375 5375 5376 5377 5378 5379 5380 5381 5382 5383 5384 5385 5386 5387 5389 5390 5391 5392 5393 5394 5395 5396 5397 5398 5399 5399
5372 5372 5371 5371 5370 5370 5369 5369 5369 5368 5368 5368 5368 5368 5369 5370 5370 5371 5372 5372 5373 5374 5375 5376 5377 5378 5379 5380 5381 5382 5384 5385 5386 5388 5389 5390 5392 5393 5394 5395 5396 5397 5398 5398